When you browse on this site, cookies collect data to enhance your experience and personalize the content and advertising you see.
Visit our Privacy Policy to learn more. By continuing to use the site, you agree to this use of cookies and data.
  • In Hungary
  • List of Countries
  • For 7 days
  • Water Temperature
  • Weather Map
  • News
  • Weather Widgets
  • user-avatar
    Login

    Hourly Weather Suhodol

    Today, 26 February, Wednesday

    Time Temperature Precipitation Wind Pressure Humidity
    00:00 -6°C° 0.1 mm 5 mps 740 mmHg 88%
    01:00 -7°C° 0 mm 5 mps 741 mmHg 89%
    02:00 -7°C° 0 mm 4 mps 741 mmHg 90%
    03:00 -8°C° 0 mm 4 mps 742 mmHg 91%
    04:00 -8°C° 0 mm 4 mps 742 mmHg 92%
    05:00 -8°C° 0 mm 4 mps 743 mmHg 93%
    06:00 -7°C° 0 mm 3 mps 743 mmHg 94%
    07:00 -7°C° 0 mm 4 mps 744 mmHg 92%
    08:00 -7°C° 0 mm 4 mps 744 mmHg 89%
    09:00 -5°C° 0 mm 4 mps 745 mmHg 87%
    10:00 -4°C° 0 mm 4 mps 745 mmHg 85%
    11:00 -4°C° 0 mm 4 mps 745 mmHg 83%
    12:00 -2°C° 0 mm 3 mps 745 mmHg 81%
    13:00 -2°C° 0 mm 3 mps 745 mmHg 80%
    14:00 -2°C° 0 mm 3 mps 745 mmHg 80%
    15:00 -1°C° 0 mm 2 mps 746 mmHg 80%
    16:00 -4°C° 0 mm 3 mps 746 mmHg 83%
    17:00 -5°C° 0 mm 3 mps 745 mmHg 87%
    18:00 -6°C° 0 mm 3 mps 745 mmHg 91%
    19:00 -6°C° 0 mm 3 mps 745 mmHg 90%
    20:00 -7°C° 0 mm 4 mps 745 mmHg 90%
    21:00 -5°C° 0 mm 4 mps 745 mmHg 89%
    22:00 -5°C° 0.4 mm 4 mps 744 mmHg 91%
    23:00 -5°C° 0.4 mm 5 mps 744 mmHg 93%

    Tomorrow, 27 February, Thursday

    Time Temperature Precipitation Wind Pressure Humidity
    00:00 -4°C° 0.4 mm 5 mps 743 mmHg 96%
    01:00 -2°C° 0.3 mm 4 mps 743 mmHg 96%
    02:00 -2°C° 0.3 mm 4 mps 743 mmHg 97%
    03:00 -1°C° 0.3 mm 4 mps 743 mmHg 98%
    04:00 0°C° 0.1 mm 3 mps 743 mmHg 98%
    05:00 0°C° 0.1 mm 3 mps 743 mmHg 98%
    06:00 0°C° 0.1 mm 3 mps 743 mmHg 98%
    07:00 +1°C° 0 mm 2 mps 744 mmHg 98%
    08:00 +1°C° 0 mm 2 mps 744 mmHg 99%
    09:00 +1°C° 0 mm 2 mps 744 mmHg 99%
    10:00 +2°C° 0.1 mm 2 mps 744 mmHg 99%
    11:00 +2°C° 0.1 mm 2 mps 745 mmHg 99%
    12:00 +2°C° 0.1 mm 2 mps 745 mmHg 100%
    13:00 +2°C° 0 mm 2 mps 745 mmHg 99%
    14:00 +2°C° 0 mm 2 mps 745 mmHg 99%
    15:00 +1°C° 0 mm 3 mps 745 mmHg 99%
    16:00 +1°C° 0 mm 3 mps 745 mmHg 99%
    17:00 +1°C° 0 mm 3 mps 744 mmHg 98%
    18:00 +1°C° 0 mm 3 mps 744 mmHg 98%
    19:00 0°C° 0.1 mm 4 mps 744 mmHg 97%
    20:00 -1°C° 0.1 mm 4 mps 744 mmHg 97%
    21:00 -1°C° 0.1 mm 4 mps 743 mmHg 97%
    22:00 -1°C° 0.5 mm 4 mps 743 mmHg 97%
    23:00 -1°C° 0.5 mm 4 mps 742 mmHg 97%

    Day after tomorrow, 28 February, Friday

    Time Temperature Precipitation Wind Pressure Humidity
    00:00 -1°C° 0.5 mm 4 mps 742 mmHg 98%
    01:00 -1°C° 0.3 mm 4 mps 742 mmHg 98%
    02:00 -1°C° 0.3 mm 4 mps 741 mmHg 98%
    03:00 0°C° 0.3 mm 4 mps 741 mmHg 98%
    04:00 0°C° 0.1 mm 5 mps 741 mmHg 98%
    05:00 0°C° 0.1 mm 5 mps 741 mmHg 98%
    06:00 0°C° 0.1 mm 5 mps 741 mmHg 98%
    07:00 0°C° 0 mm 5 mps 742 mmHg 98%
    08:00 0°C° 0 mm 5 mps 742 mmHg 98%
    09:00 0°C° 0 mm 4 mps 743 mmHg 99%
    10:00 +1°C° 0 mm 4 mps 743 mmHg 99%
    11:00 +1°C° 0 mm 4 mps 743 mmHg 99%
    12:00 +2°C° 0 mm 3 mps 743 mmHg 99%
    13:00 +1°C° 0.3 mm 4 mps 742 mmHg 98%
    14:00 +1°C° 0.3 mm 5 mps 742 mmHg 98%
    15:00 +1°C° 0.3 mm 5 mps 742 mmHg 98%
    16:00 +1°C° 1 mm 5 mps 741 mmHg 98%
    17:00 +2°C° 1 mm 5 mps 741 mmHg 97%
    18:00 +2°C° 1 mm 5 mps 740 mmHg 97%
    19:00 +2°C° 0.6 mm 6 mps 740 mmHg 97%
    20:00 +2°C° 0.6 mm 6 mps 740 mmHg 96%
    21:00 +2°C° 0.6 mm 6 mps 741 mmHg 96%
    22:00 +2°C° 0.6 mm 6 mps 741 mmHg 96%
    23:00 +1°C° 0.6 mm 5 mps 741 mmHg 96%

    29 February, Saturday

    Time Temperature Precipitation Wind Pressure Humidity
    00:00 +1°C° 0.6 mm 5 mps 742 mmHg 97%
    01:00 0°C° 0.1 mm 4 mps 742 mmHg 94%
    02:00 -1°C° 0.1 mm 4 mps 743 mmHg 92%
    03:00 0°C° 0.1 mm 3 mps 743 mmHg 90%
    04:00 -1°C° 0 mm 3 mps 744 mmHg 89%
    05:00 -1°C° 0 mm 3 mps 745 mmHg 87%
    06:00 -2°C° 0 mm 3 mps 745 mmHg 86%
    07:00 -1°C° 0 mm 3 mps 745 mmHg 83%
    08:00 -1°C° 0 mm 3 mps 746 mmHg 80%
    09:00 -1°C° 0 mm 3 mps 746 mmHg 77%
    10:00 -1°C° 0 mm 3 mps 746 mmHg 77%
    11:00 +1°C° 0 mm 2 mps 746 mmHg 77%
    12:00 +1°C° 0 mm 2 mps 746 mmHg 77%
    13:00 +1°C° 0 mm 2 mps 746 mmHg 78%
    14:00 +1°C° 0 mm 2 mps 747 mmHg 79%
    15:00 +1°C° 0 mm 2 mps 747 mmHg 81%
    16:00 -1°C° 0 mm 2 mps 747 mmHg 83%
    17:00 -1°C° 0 mm 2 mps 747 mmHg 86%
    18:00 -2°C° 0 mm 2 mps 748 mmHg 89%
    19:00 -2°C° 0 mm 2 mps 748 mmHg 89%
    20:00 -2°C° 0 mm 2 mps 748 mmHg 89%
    21:00 -3°C° 0 mm 2 mps 749 mmHg 90%
    22:00 -3°C° 0 mm 2 mps 749 mmHg 91%
    23:00 -3°C° 0 mm 2 mps 749 mmHg 91%

    1 March, Sunday

    Time Temperature Precipitation Wind Pressure Humidity
    00:00 -3°C° 0 mm 2 mps 749 mmHg 92%
    01:00 -3°C° 0 mm 2 mps 750 mmHg 92%
    02:00 -3°C° 0 mm 2 mps 750 mmHg 92%
    03:00 -3°C° 0 mm 2 mps 750 mmHg 92%
    04:00 -3°C° 0 mm 2 mps 751 mmHg 91%
    05:00 -3°C° 0 mm 2 mps 751 mmHg 91%
    06:00 -3°C° 0 mm 2 mps 751 mmHg 90%
    07:00 -2°C° 0 mm 2 mps 752 mmHg 87%
    08:00 -2°C° 0 mm 3 mps 752 mmHg 84%
    09:00 -2°C° 0 mm 3 mps 752 mmHg 82%
    10:00 -1°C° 0 mm 3 mps 753 mmHg 79%
    11:00 0°C° 0 mm 3 mps 753 mmHg 77%
    12:00 0°C° 0 mm 3 mps 753 mmHg 75%
    13:00 0°C° 0 mm 3 mps 753 mmHg 76%
    14:00 0°C° 0 mm 3 mps 753 mmHg 76%
    15:00 0°C° 0 mm 3 mps 753 mmHg 77%
    16:00 -1°C° 0 mm 2 mps 753 mmHg 80%
    17:00 -1°C° 0 mm 2 mps 754 mmHg 83%
    18:00 -2°C° 0 mm 2 mps 754 mmHg 87%
    19:00 -2°C° 0 mm 2 mps 754 mmHg 88%
    20:00 -2°C° 0 mm 2 mps 754 mmHg 88%
    21:00 -2°C° 0 mm 2 mps 755 mmHg 89%
    22:00 -2°C° 0 mm 2 mps 755 mmHg 89%
    23:00 -2°C° 0 mm 2 mps 755 mmHg 90%

    2 March, Monday

    Time Temperature Precipitation Wind Pressure Humidity
    00:00 -2°C° 0 mm 2 mps 755 mmHg 91%
    01:00 -3°C° 0 mm 2 mps 755 mmHg 91%
    02:00 -3°C° 0 mm 2 mps 755 mmHg 92%
    03:00 -3°C° 0 mm 2 mps 755 mmHg 93%
    04:00 -3°C° 0 mm 2 mps 755 mmHg 94%
    05:00 -3°C° 0 mm 2 mps 755 mmHg 95%
    06:00 -3°C° 0 mm 2 mps 755 mmHg 96%
    07:00 -2°C° 0 mm 2 mps 755 mmHg 94%
    08:00 -2°C° 0 mm 3 mps 755 mmHg 92%
    09:00 -1°C° 0 mm 3 mps 755 mmHg 90%
    10:00 -1°C° 0 mm 3 mps 755 mmHg 89%
    11:00 -1°C° 0 mm 4 mps 755 mmHg 87%
    12:00 -1°C° 0 mm 4 mps 755 mmHg 86%
    13:00 -1°C° 0 mm 4 mps 755 mmHg 84%
    14:00 0°C° 0 mm 4 mps 754 mmHg 82%
    15:00 0°C° 0 mm 4 mps 754 mmHg 81%
    16:00 -1°C° 0 mm 4 mps 754 mmHg 83%
    17:00 -1°C° 0 mm 4 mps 754 mmHg 86%
    18:00 -2°C° 0 mm 4 mps 754 mmHg 88%
    19:00 -2°C° 0 mm 4 mps 754 mmHg 87%
    20:00 -2°C° 0 mm 4 mps 754 mmHg 87%
    21:00 -2°C° 0 mm 4 mps 754 mmHg 86%
    22:00 -2°C° 0 mm 4 mps 754 mmHg 88%
    23:00 -2°C° 0 mm 4 mps 754 mmHg 90%
    Show more